SL-14 R/B, 27061

Orbit data source: Space-Track

SL-14 R/B, 27061 is space debris in LEO originally from a launch on Fri, 28 Dec 2001 UTC launched from the Plesetsk Missile And Space Complex (PKMTR). Debris objects in space refer to the collection of defunct objects orbiting the Earth. Examples of debris include non-operational satellites, rocket bodies, and fragments generated from explosions, collisions, or faulty payload assembly.

Loading next visibility...
Identifier
27061, 2001-058G
Orbit
LEO
Country
Flag of CISCIS
Related business
Manufacturer
Yuzhnoe
Mission
Spacecraft
Bus & Motor
S5M, Unknown motor
Mass
1,600 kg wet, 1,600 kg dry
Launch date (UTC)
2001-12-28 (24 years ago)
Launch vehicle
Unknown
Launch site
Plesetsk Missile And Space Complex (PKMTR)
Object type
Payload
Rocket body
Debris
Shape & HBR
Cyl, 1.4 m
Radar Cross Section
7.351 m², Large (>1 m²)

Expand to show TLE details & history
Last TLE update: 12 hours ago

TLE from 12 hours ago
0 SL-14 R/B
1 27061U 01058G   26035.67435096  .00000000  00000-0 -62766-4 0  9998
2 27061  82.5453  17.9593 0044366  50.5473 122.2916 12.53955723103410
Epoch: 2026-02-04T16:11Z
TLE epoch observation values (Epoch: 2026-02-04T16:11:03.922Z)
Latitude
6.60536°
Longitude
179.49149°
Altitude
1,468.76 km
Speed
7.12 km/s
True Right ascension
13h 08m 22s
True Declination
6° 34' 11"
Sunlit
Object was in daylight at epoch
Visualization orbit readout
Latitude
Unknown
Longitude
Unknown
Altitude
Unknown
Speed
Unknown
Apparent Right ascension
Unknown
Apparent Declination
Unknown
Sunlit
N/A
Visualization observer readout
Local Sidereal Time
06:09:20
Azimuth
Unknown
Elevation
Unknown
Doppler factor
Unknown
Orbital elements
Apogee altitude
1,480.036 km
Perigee altitude
1,410.617 km
Semi-major axis
7,823.463 km
Eccentricity
0.00444
Inclination
82.5453°
RAAN
17.9593°
Arg. of periapsis
50.5473°
True anomaly
122.72009°
Mean anomaly
122.2916°
Eccentric anomaly
122.50597°
Mean motion
3.13649 °/min
Orbital period
114.78 mins
BSTAR
-0.000062766
Loading maneuver chart data...
Computing Atmospheric mass density...
Loading historical data...
Loading historical data...
Loading historical data...
Loading historical data...
Loading historical data...
Loading historical data...
Loading historical data...

Documentation

Showing up to 5 results
|